Regional Weather Roundup
Issued by NWS Cleveland, OH

Home | Current Version | Previous Version | Graphics & Text | Print | Product List | Glossary On
Versions: 1 2 3 4 5 6 7 8 9 10 11 12 13 14 15 16 17 18 19 20 21 22 23 24 25 26 27 28 29 30 31 32 33 34 35 36 37 38 39 40 41 42 43 44 45 46 47 48 49 50
308
ASUS41 KCLE 251402
RWRCLE
OHIO REGIONAL WEATHER ROUNDUP
NATIONAL WEATHER SERVICE CLEVELAND, OH
1000 AM EDT SUN SEP 25 2016

NOTE: "FAIR" INDICATES FEW OR NO CLOUDS BELOW 12,000 FEET WITH NO
SIGNIFICANT WEATHER AND/OR OBSTRUCTIONS TO VISIBILITY.

OHZ001>008-015>018-024>027-034-035-043-044-251500-
   NORTHWEST OHIO

CITY           SKY/WX    TMP DP  RH WIND       PRES   REMARKS
DEFIANCE       SUNNY     61  51  70 E6        30.18F
FINDLAY        SUNNY     61  49  64 E3        30.17F
TOLEDO EXPRESS SUNNY     60  51  72 VRB3      30.19S
TOLEDO EXEC    SUNNY     61  52  72 E6        30.20F
LIMA           SUNNY     63  53  70 SE6       30.17F
$$

OHZ009>014-019>023-028>033-038-089-251500-
   NORTHEAST OHIO

CITY           SKY/WX    TMP DP  RH WIND       PRES   REMARKS
CLE-HOPKINS    SUNNY     63  45  51 SE7       30.23S
CLE-LAKEFRONT  SUNNY     63  44  50 E7        30.21S
CUY CO. ARPT   NOT AVBL
LORAIN-ELYRIA  SUNNY     59  46  62 SE8       30.21F
ASHTABULA      SUNNY     56  44  64 SE7       30.25R
AKRON-CANTON   MOSUNNY   58  48  69 NE7       30.21S
WOOSTER        SUNNY     58  49  72 E5        30.22R
MANSFIELD      SUNNY     60  50  69 SE5       30.20S
YOUNGSTOWN     MOSUNNY   57  46  66 E6        30.22R
$$

OHZ042-051>053-060>062-070>072-077>081-251500-
  SOUTHWEST OHIO

CITY           SKY/WX    TMP DP  RH WIND       PRES   REMARKS
CINC-COVINGTON SUNNY     69  61  75 SE6       30.14F
CINC-LUNKEN    SUNNY     68  61  78 CALM      30.15F
HAMILTON       SUNNY     67  58  72 VRB3      30.16S
DAYTON         MOSUNNY   65  54  67 SE6       30.17S
WRIGHT-PAT AFB NOT AVBL
DAYTON GENERAL SUNNY     66  56  70 SE6       30.15S
WILMINGTON     SUNNY     65  58  78 E7        30.16S
$$

OHZ036-037-039>041-045>050-054>059-063>069-073>076-082>088-251500-
  CENTRAL AND SOUTHEAST OHIO

CITY           SKY/WX    TMP DP  RH WIND       PRES   REMARKS
COLUMBUS       SUNNY     63  54  72 E3        30.17S
OSU AIRPORT    SUNNY     63  54  72 CALM      30.18R
BOLTON FIELD   NOT AVBL
RICKENBACK AFB NOT AVBL
NEWARK         SUNNY     61  50  67 VRB5      30.18S
MARION         SUNNY     61  51  70 E5        30.19S
LANCASTER      SUNNY     63  54  72 E6        30.18R
ZANESVILLE     SUNNY     61  52  72 NE3       30.19R
NEW PHILLY     SUNNY     60  50  69 E5        30.20F
$$




USA.gov is the U.S. government's official web portal to all federal, state and local government web resources and services.